Weather History for Beaufort, SC

Change the Weather History Date:

Wednesday, June 19, 2013

  Actual Average (KNBC) Record (KNBC)
Temperature  
Mean Temperature 78 °F -  
Max Temperature 87 °F 88 °F 99 °F (1970)
Min Temperature 69 °F 70 °F 57 °F (1961)
Cooling Degree Days 13    
Growing Degree Days 28 (Base 50)    
Moisture  
Dew Point 73 °F    
Average Humidity 85    
Maximum Humidity 100    
Minimum Humidity 62    
Precipitation  
Precipitation 0.00 in - - ()
Sea Level Pressure  
Sea Level Pressure 29.97 in    
Wind  
Wind Speed 7 mph (SW)    
Max Wind Speed 10 mph    
Max Gust Speed 16 mph    
Visibility 7 miles    
Events Rain , Thunderstorm    
Averages and records for this station are not official NWS values.
T = Trace of Precipitation, MM = Missing Value Source: NWS Daily Summary

Daily Weather History Graph

Daily Weather History Graph

Search for Another Location

Airport:

Trip Planner

Search our weather history database for the weather conditions in past years. The results will help you decide how hot, cold, wet, or windy it might be!

Date:

Astronomy

Jun. 19, 2013 Rise Set
Actual Time 6:15 AM EDT 8:32 PM EDT
Civil Twilight 5:47 AM EDT 9:00 PM EDT
Nautical Twilight 5:12 AM EDT 9:35 PM EDT
Astronomical Twilight 4:34 AM EDT 10:13 PM EDT
Moon 4:32 PM EDT (6/19) 2:48 AM EDT (6/19)
Length of Visible Light 15h 13m
Length of Day
14h 16m
Waxing Gibbous, 80% of the Moon is Illuminated
Jun 19
Waxing Gibbous
Jun 23
Full
Jun 30
Last Quarter
Jul 8
New
Jul 15
First Quarter

Hourly Weather History & Observations

Time (EDT) Temp. Heat Index Dew Point Humidity Pressure Visibility Wind Dir Wind Speed Gust Speed Precip Events Conditions
12:15 AM 80.6 °F 87.1 °F 77.0 °F 89% 29.92 in 7.0 mi SSW 5.8 mph - N/A   Clear
12:35 AM 80.6 °F 87.1 °F 77.0 °F 89% 29.92 in 7.0 mi SSW 6.9 mph - N/A   Mostly Cloudy
12:55 AM 80.6 °F 87.1 °F 77.0 °F 89% 29.92 in 7.0 mi SSW 5.8 mph - N/A   Scattered Clouds
1:15 AM 80.6 °F 86.2 °F 75.2 °F 84% 29.91 in 7.0 mi SW 5.8 mph - N/A   Clear
1:35 AM 80.6 °F 85.4 °F 73.4 °F 79% 29.91 in 7.0 mi SW 6.9 mph - N/A   Clear
1:55 AM 80.6 °F 85.4 °F 73.4 °F 79% 29.91 in 7.0 mi SW 8.1 mph 16.1 mph N/A   Clear
2:15 AM 80.6 °F 84.6 °F 71.6 °F 74% 29.92 in 7.0 mi SW 9.2 mph 16.1 mph N/A   Clear
2:35 AM 80.6 °F 84.6 °F 71.6 °F 74% 29.92 in 10.0 mi SW 8.1 mph - N/A   Clear
2:55 AM 80.6 °F 84.6 °F 71.6 °F 74% 29.92 in 7.0 mi SW 9.2 mph - N/A   Clear
3:15 AM 78.8 °F - 71.6 °F 78% 29.91 in 10.0 mi SW 8.1 mph - N/A   Clear
3:35 AM 78.8 °F - 71.6 °F 78% 29.91 in 7.0 mi SW 8.1 mph - N/A   Clear
3:55 AM 78.8 °F - 71.6 °F 78% 29.92 in 7.0 mi SW 9.2 mph - N/A   Clear
4:15 AM 78.8 °F - 71.6 °F 78% 29.92 in 7.0 mi SW 8.1 mph - N/A   Clear
4:35 AM 78.8 °F - 71.6 °F 78% 29.92 in 7.0 mi SW 6.9 mph - N/A   Clear
4:55 AM 78.8 °F - 71.6 °F 78% 29.92 in 10.0 mi WSW 8.1 mph - N/A   Scattered Clouds
5:15 AM 78.8 °F - 71.6 °F 78% 29.93 in 7.0 mi WSW 8.1 mph - N/A   Scattered Clouds
5:35 AM 78.8 °F - 71.6 °F 78% 29.93 in 7.0 mi SW 6.9 mph - N/A   Mostly Cloudy
5:55 AM 78.8 °F - 71.6 °F 78% 29.93 in 10.0 mi WSW 6.9 mph - N/A   Overcast
6:15 AM 78.8 °F - 73.4 °F 83% 29.93 in 10.0 mi SW 8.1 mph - N/A Rain Light Rain
6:35 AM 77.0 °F - 73.4 °F 89% 29.94 in 7.0 mi SW 6.9 mph - N/A Thunderstorm Thunderstorm
6:55 AM 77.0 °F - 73.4 °F 89% 29.95 in 7.0 mi SW 4.6 mph - N/A   Mostly Cloudy
7:15 AM 77.0 °F - 73.4 °F 89% 29.95 in 7.0 mi WSW 9.2 mph - N/A   Scattered Clouds
7:35 AM 78.8 °F - 73.4 °F 83% 29.96 in 7.0 mi WSW 5.8 mph - N/A Thunderstorm Scattered Clouds
7:55 AM 78.8 °F - 73.4 °F 83% 29.96 in 7.0 mi WSW 10.4 mph - N/A   Scattered Clouds
8:15 AM 80.6 °F 85.4 °F 73.4 °F 79% 29.97 in 7.0 mi West 9.2 mph - N/A   Scattered Clouds
8:35 AM 78.8 °F - 73.4 °F 83% 29.97 in 10.0 mi West 6.9 mph - N/A   Scattered Clouds
8:55 AM 78.8 °F - 71.6 °F 78% 29.98 in 7.0 mi West 8.1 mph - N/A   Scattered Clouds
9:15 AM 78.8 °F - 73.4 °F 83% 29.98 in 7.0 mi WSW 4.6 mph - N/A   Scattered Clouds
9:35 AM 80.6 °F 85.4 °F 73.4 °F 79% 29.98 in 7.0 mi WSW 6.9 mph - N/A   Overcast
9:55 AM 80.6 °F 85.4 °F 73.4 °F 79% 29.98 in 7.0 mi West 9.2 mph - N/A   Mostly Cloudy
10:15 AM 80.6 °F 85.4 °F 73.4 °F 79% 29.98 in 7.0 mi West 9.2 mph - N/A   Mostly Cloudy
10:35 AM 82.4 °F 88.2 °F 73.4 °F 74% 29.98 in 7.0 mi WSW 6.9 mph - N/A   Mostly Cloudy
10:55 AM 84.2 °F 90.9 °F 73.4 °F 70% 29.98 in 7.0 mi West 5.8 mph - N/A   Mostly Cloudy
11:15 AM 84.2 °F 90.9 °F 73.4 °F 70% 29.98 in 7.0 mi WSW 9.2 mph - N/A   Mostly Cloudy
11:35 AM 84.2 °F 90.9 °F 73.4 °F 70% 29.98 in 7.0 mi WSW 6.9 mph - N/A   Scattered Clouds
11:55 AM 86.0 °F 93.4 °F 73.4 °F 66% 29.99 in 7.0 mi West 6.9 mph - N/A   Mostly Cloudy
12:15 PM 87.8 °F 95.6 °F 73.4 °F 62% 29.99 in 7.0 mi West 9.2 mph - N/A   Mostly Cloudy
12:35 PM 86.0 °F 93.4 °F 73.4 °F 66% 29.98 in 7.0 mi West 9.2 mph - N/A   Scattered Clouds
12:55 PM 87.8 °F 95.6 °F 73.4 °F 62% 29.98 in 7.0 mi WSW 9.2 mph - N/A Thunderstorm Scattered Clouds
1:15 PM 87.8 °F 95.6 °F 73.4 °F 62% 29.97 in 7.0 mi WNW 5.8 mph - N/A Thunderstorm Mostly Cloudy
1:35 PM 87.8 °F 95.6 °F 73.4 °F 62% 29.97 in 7.0 mi WSW 6.9 mph - N/A Thunderstorm Overcast
1:55 PM 86.0 °F 93.4 °F 73.4 °F 66% 29.96 in 7.0 mi Calm Calm - N/A   Overcast
2:15 PM 84.2 °F 90.9 °F 73.4 °F 70% 29.96 in 7.0 mi South 9.2 mph - N/A   Overcast
2:35 PM 80.6 °F 85.4 °F 73.4 °F 79% 29.96 in 7.0 mi South 5.8 mph - N/A Thunderstorm Mostly Cloudy
2:55 PM 80.6 °F 85.4 °F 73.4 °F 79% 29.95 in 10.0 mi South 9.2 mph - N/A Rain Light Rain
3:15 PM 80.6 °F 84.6 °F 71.6 °F 74% 29.96 in 5.0 mi South 5.8 mph - N/A Thunderstorm Unknown
3:35 PM 80.6 °F 85.4 °F 73.4 °F 79% 29.95 in 7.0 mi South 3.5 mph - N/A   Scattered Clouds
3:55 PM 80.6 °F 86.2 °F 75.2 °F 84% 29.97 in 1.2 mi West 9.2 mph - N/A Rain , Thunderstorm Heavy Thunderstorms and Rain
4:15 PM 77.0 °F - 77.0 °F 100% 29.96 in 5.0 mi West 6.9 mph - N/A Rain , Thunderstorm Heavy Thunderstorms and Rain
4:35 PM 73.4 °F - 73.4 °F 100% 29.96 in 1.5 mi WSW 6.9 mph - N/A Rain , Thunderstorm Heavy Thunderstorms and Rain
4:55 PM 73.4 °F - 73.4 °F 100% 29.94 in 1.5 mi South 10.4 mph - N/A Rain , Thunderstorm Heavy Thunderstorms and Rain
5:15 PM 73.4 °F - 73.4 °F 100% 29.94 in 2.0 mi SSE 9.2 mph - N/A Rain , Thunderstorm Heavy Thunderstorms and Rain
5:35 PM 71.6 °F - 71.6 °F 100% 29.95 in 3.0 mi South 4.6 mph - N/A Rain , Thunderstorm Light Thunderstorms and Rain
5:55 PM 73.4 °F - 73.4 °F 100% 29.96 in 4.0 mi WNW 6.9 mph - N/A Rain Heavy Rain
6:15 PM 77.0 °F - 75.2 °F 94% 29.98 in 7.0 mi North 4.6 mph - N/A Rain , Thunderstorm Thunderstorms and Rain
6:35 PM 73.4 °F - 71.6 °F 94% 29.98 in 5.0 mi ENE 9.2 mph - N/A Rain , Thunderstorm Thunderstorms and Rain
6:55 PM 71.6 °F - 71.6 °F 100% 29.97 in 7.0 mi SE 3.5 mph - N/A Rain Rain
7:15 PM 69.8 °F - 69.8 °F 100% 29.98 in 10.0 mi ESE 3.5 mph - N/A Rain , Thunderstorm Light Thunderstorms and Rain
7:35 PM 69.8 °F - 69.8 °F 100% 30.00 in 5.0 mi SSE 3.5 mph - N/A Rain , Thunderstorm Rain
7:55 PM 69.8 °F - 69.8 °F 100% 30.02 in 5.0 mi West 5.8 mph - N/A Rain , Thunderstorm Thunderstorms and Rain
8:15 PM 69.8 °F - 69.8 °F 100% 30.02 in 7.0 mi Calm Calm - N/A Rain Light Rain
8:35 PM 71.6 °F - 71.6 °F 100% 30.03 in 10.0 mi WSW 4.6 mph - N/A Rain , Thunderstorm Rain
8:55 PM 69.8 °F - 69.8 °F 100% 30.02 in 7.0 mi SE 3.5 mph - N/A Rain , Thunderstorm Thunderstorms and Rain
9:15 PM 71.6 °F - 71.6 °F 100% 30.01 in 10.0 mi Calm Calm - N/A   Light Drizzle
9:35 PM 71.6 °F - 71.6 °F 100% 30.01 in 7.0 mi Calm Calm - N/A   Scattered Clouds
9:55 PM 71.6 °F - 71.6 °F 100% 30.02 in 7.0 mi Calm Calm - N/A   Scattered Clouds
10:15 PM 71.6 °F - 71.6 °F 100% 30.04 in 7.0 mi Calm Calm - N/A   Clear
10:35 PM 71.6 °F - 71.6 °F 100% 30.05 in 5.0 mi Calm Calm - N/A   Scattered Clouds
10:55 PM 71.6 °F - 71.6 °F 100% 30.04 in 7.0 mi Calm Calm - N/A   Mostly Cloudy
11:15 PM 71.6 °F - 71.6 °F 100% 30.04 in 7.0 mi Calm Calm - N/A   Overcast
11:35 PM 71.6 °F - 71.6 °F 100% 30.04 in 7.0 mi West 3.5 mph - N/A   Mostly Cloudy
11:55 PM 71.6 °F - 71.6 °F 100% 30.04 in 7.0 mi WNW 4.6 mph - N/A   Scattered Clouds